﻿測定場所 (Monitoring sites),日付 (Measurement date),時間 (Measurement time),線量率 最大値 (max) μGy/h,線量率 最小値 (min) μGy/h,線量率 平均値 (average) μGy/h,
小平 (Kodaira),2015-11-15,23:01～24:00,0.0337,0.0286,0.0312,
小平 (Kodaira),2015-11-15,22:01～23:00,0.0335,0.0295,0.0315,
小平 (Kodaira),2015-11-15,21:01～22:00,0.0353,0.0289,0.0316,
小平 (Kodaira),2015-11-15,20:01～21:00,0.0334,0.0295,0.0312,
小平 (Kodaira),2015-11-15,19:01～20:00,0.0335,0.0295,0.0311,
小平 (Kodaira),2015-11-15,18:01～19:00,0.0330,0.0294,0.0311,
小平 (Kodaira),2015-11-15,17:01～18:00,0.0330,0.0294,0.0311,
小平 (Kodaira),2015-11-15,16:01～17:00,0.0331,0.0287,0.0310,
小平 (Kodaira),2015-11-15,15:01～16:00,0.0334,0.0297,0.0312,
小平 (Kodaira),2015-11-15,14:01～15:00,0.0336,0.0289,0.0312,
小平 (Kodaira),2015-11-15,13:01～14:00,0.0332,0.0296,0.0313,
小平 (Kodaira),2015-11-15,12:01～13:00,0.0333,0.0289,0.0313,
小平 (Kodaira),2015-11-15,11:01～12:00,0.0326,0.0293,0.0311,
小平 (Kodaira),2015-11-15,10:01～11:00,0.0333,0.0304,0.0319,
小平 (Kodaira),2015-11-15,09:01～10:00,0.0349,0.0305,0.0329,
小平 (Kodaira),2015-11-15,08:01～09:00,0.0360,0.0322,0.0340,
小平 (Kodaira),2015-11-15,07:01～08:00,0.0371,0.0321,0.0343,
小平 (Kodaira),2015-11-15,06:01～07:00,0.0360,0.0318,0.0339,
小平 (Kodaira),2015-11-15,05:01～06:00,0.0373,0.0322,0.0348,
小平 (Kodaira),2015-11-15,04:01～05:00,0.0370,0.0327,0.0349,
小平 (Kodaira),2015-11-15,03:01～04:00,0.0355,0.0294,0.0327,
小平 (Kodaira),2015-11-15,02:01～03:00,0.0336,0.0295,0.0313,
小平 (Kodaira),2015-11-15,01:01～02:00,0.0336,0.0296,0.0312,
小平 (Kodaira),2015-11-15,00:01～01:00,0.0346,0.0306,0.0322,
小平 (Kodaira),2015-11-14,23:01～24:00,0.0347,0.0306,0.0327,
小平 (Kodaira),2015-11-14,22:01～23:00,0.0346,0.0312,0.0329,
小平 (Kodaira),2015-11-14,21:01～22:00,0.0380,0.0319,0.0345,
小平 (Kodaira),2015-11-14,20:01～21:00,0.0380,0.0337,0.0355,
小平 (Kodaira),2015-11-14,19:01～20:00,0.0369,0.0336,0.0351,
小平 (Kodaira),2015-11-14,18:01～19:00,0.0383,0.0345,0.0363,
小平 (Kodaira),2015-11-14,17:01～18:00,0.0363,0.0322,0.0347,
小平 (Kodaira),2015-11-14,16:01～17:00,0.0349,0.0303,0.0328,
小平 (Kodaira),2015-11-14,15:01～16:00,0.0349,0.0300,0.0323,
小平 (Kodaira),2015-11-14,14:01～15:00,0.0345,0.0303,0.0327,
小平 (Kodaira),2015-11-14,13:01～14:00,0.0357,0.0304,0.0328,
小平 (Kodaira),2015-11-14,12:01～13:00,0.0354,0.0309,0.0333,
小平 (Kodaira),2015-11-14,11:01～12:00,0.0347,0.0314,0.0330,
小平 (Kodaira),2015-11-14,10:01～11:00,0.0354,0.0319,0.0330,
小平 (Kodaira),2015-11-14,09:01～10:00,0.0349,0.0292,0.0320,
小平 (Kodaira),2015-11-14,08:01～09:00,0.0331,0.0295,0.0313,
小平 (Kodaira),2015-11-14,07:01～08:00,0.0338,0.0296,0.0314,
小平 (Kodaira),2015-11-14,06:01～07:00,0.0334,0.0297,0.0316,
小平 (Kodaira),2015-11-14,05:01～06:00,0.0335,0.0299,0.0315,
小平 (Kodaira),2015-11-14,04:01～05:00,0.0332,0.0287,0.0314,
小平 (Kodaira),2015-11-14,03:01～04:00,0.0332,0.0296,0.0315,
小平 (Kodaira),2015-11-14,02:01～03:00,0.0338,0.0287,0.0313,
小平 (Kodaira),2015-11-14,01:01～02:00,0.0343,0.0284,0.0320,
小平 (Kodaira),2015-11-14,00:01～01:00,0.0346,0.0300,0.0320,
小平 (Kodaira),2015-11-13,23:01～24:00,0.0345,0.0303,0.0324,
小平 (Kodaira),2015-11-13,22:01～23:00,0.0342,0.0302,0.0320,
小平 (Kodaira),2015-11-13,21:01～22:00,0.0341,0.0301,0.0321,
小平 (Kodaira),2015-11-13,20:01～21:00,0.0347,0.0310,0.0330,
小平 (Kodaira),2015-11-13,19:01～20:00,0.0343,0.0299,0.0322,
小平 (Kodaira),2015-11-13,18:01～19:00,0.0331,0.0286,0.0312,
小平 (Kodaira),2015-11-13,17:01～18:00,0.0337,0.0297,0.0315,
小平 (Kodaira),2015-11-13,16:01～17:00,0.0330,0.0296,0.0313,
小平 (Kodaira),2015-11-13,15:01～16:00,0.0335,0.0284,0.0312,
小平 (Kodaira),2015-11-13,14:01～15:00,0.0327,0.0298,0.0312,
小平 (Kodaira),2015-11-13,13:01～14:00,0.0339,0.0290,0.0314,
小平 (Kodaira),2015-11-13,12:01～13:00,0.0341,0.0299,0.0316,
小平 (Kodaira),2015-11-13,11:01～12:00,0.0334,0.0300,0.0319,
小平 (Kodaira),2015-11-13,10:01～11:00,0.0343,0.0302,0.0324,
小平 (Kodaira),2015-11-13,09:01～10:00,0.0342,0.0305,0.0324,
小平 (Kodaira),2015-11-13,08:01～09:00,0.0342,0.0300,0.0325,
小平 (Kodaira),2015-11-13,07:01～08:00,0.0343,0.0300,0.0323,
小平 (Kodaira),2015-11-13,06:01～07:00,0.0342,0.0303,0.0322,
小平 (Kodaira),2015-11-13,05:01～06:00,0.0343,0.0300,0.0321,
小平 (Kodaira),2015-11-13,04:01～05:00,0.0349,0.0299,0.0323,
小平 (Kodaira),2015-11-13,03:01～04:00,0.0341,0.0303,0.0320,
小平 (Kodaira),2015-11-13,02:01～03:00,0.0337,0.0297,0.0318,
小平 (Kodaira),2015-11-13,01:01～02:00,0.0342,0.0299,0.0318,
小平 (Kodaira),2015-11-13,00:01～01:00,0.0333,0.0306,0.0320,
小平 (Kodaira),2015-11-12,23:01～24:00,0.0346,0.0299,0.0317,
小平 (Kodaira),2015-11-12,22:01～23:00,0.0336,0.0288,0.0316,
小平 (Kodaira),2015-11-12,21:01～22:00,0.0328,0.0291,0.0313,
小平 (Kodaira),2015-11-12,20:01～21:00,0.0335,0.0292,0.0314,
小平 (Kodaira),2015-11-12,19:01～20:00,0.0338,0.0294,0.0314,
小平 (Kodaira),2015-11-12,18:01～19:00,0.0338,0.0294,0.0312,
小平 (Kodaira),2015-11-12,17:01～18:00,0.0334,0.0286,0.0309,
小平 (Kodaira),2015-11-12,16:01～17:00,0.0326,0.0288,0.0309,
小平 (Kodaira),2015-11-12,15:01～16:00,0.0327,0.0288,0.0308,
小平 (Kodaira),2015-11-12,14:01～15:00,0.0334,0.0297,0.0312,
小平 (Kodaira),2015-11-12,13:01～14:00,0.0337,0.0300,0.0316,
小平 (Kodaira),2015-11-12,12:01～13:00,0.0333,0.0288,0.0311,
小平 (Kodaira),2015-11-12,11:01～12:00,0.0333,0.0293,0.0311,
小平 (Kodaira),2015-11-12,10:01～11:00,0.0337,0.0298,0.0315,
小平 (Kodaira),2015-11-12,09:01～10:00,0.0334,0.0297,0.0314,
小平 (Kodaira),2015-11-12,08:01～09:00,0.0333,0.0303,0.0317,
小平 (Kodaira),2015-11-12,07:01～08:00,0.0332,0.0296,0.0312,
小平 (Kodaira),2015-11-12,06:01～07:00,0.0329,0.0293,0.0312,
小平 (Kodaira),2015-11-12,05:01～06:00,0.0330,0.0296,0.0314,
小平 (Kodaira),2015-11-12,04:01～05:00,0.0328,0.0293,0.0314,
小平 (Kodaira),2015-11-12,03:01～04:00,0.0339,0.0295,0.0313,
小平 (Kodaira),2015-11-12,02:01～03:00,0.0334,0.0296,0.0314,
小平 (Kodaira),2015-11-12,01:01～02:00,0.0338,0.0288,0.0313,
小平 (Kodaira),2015-11-12,00:01～01:00,0.0331,0.0295,0.0312,
小平 (Kodaira),2015-11-11,23:01～24:00,0.0329,0.0292,0.0309,
小平 (Kodaira),2015-11-11,22:01～23:00,0.0338,0.0286,0.0312,
小平 (Kodaira),2015-11-11,21:01～22:00,0.0337,0.0292,0.0313,
小平 (Kodaira),2015-11-11,20:01～21:00,0.0333,0.0292,0.0313,
小平 (Kodaira),2015-11-11,19:01～20:00,0.0332,0.0292,0.0312,
小平 (Kodaira),2015-11-11,18:01～19:00,0.0328,0.0280,0.0313,
小平 (Kodaira),2015-11-11,17:01～18:00,0.0330,0.0293,0.0311,
小平 (Kodaira),2015-11-11,16:01～17:00,0.0336,0.0295,0.0312,
小平 (Kodaira),2015-11-11,15:01～16:00,0.0334,0.0298,0.0314,
小平 (Kodaira),2015-11-11,14:01～15:00,0.0336,0.0300,0.0316,
小平 (Kodaira),2015-11-11,13:01～14:00,0.0329,0.0298,0.0313,
小平 (Kodaira),2015-11-11,12:01～13:00,0.0336,0.0290,0.0315,
小平 (Kodaira),2015-11-11,11:01～12:00,0.0342,0.0294,0.0316,
小平 (Kodaira),2015-11-11,10:01～11:00,0.0337,0.0295,0.0315,
小平 (Kodaira),2015-11-11,09:01～10:00,0.0337,0.0299,0.0316,
小平 (Kodaira),2015-11-11,08:01～09:00,0.0330,0.0295,0.0313,
小平 (Kodaira),2015-11-11,07:01～08:00,0.0331,0.0286,0.0312,
小平 (Kodaira),2015-11-11,06:01～07:00,0.0333,0.0293,0.0313,
小平 (Kodaira),2015-11-11,05:01～06:00,0.0340,0.0291,0.0313,
小平 (Kodaira),2015-11-11,04:01～05:00,0.0337,0.0293,0.0315,
小平 (Kodaira),2015-11-11,03:01～04:00,0.0334,0.0295,0.0314,
小平 (Kodaira),2015-11-11,02:01～03:00,0.0337,0.0292,0.0313,
小平 (Kodaira),2015-11-11,01:01～02:00,0.0340,0.0301,0.0320,
小平 (Kodaira),2015-11-11,00:01～01:00,0.0336,0.0293,0.0314,
小平 (Kodaira),2015-11-10,23:01～24:00,0.0332,0.0298,0.0316,
小平 (Kodaira),2015-11-10,22:01～23:00,0.0355,0.0303,0.0323,
小平 (Kodaira),2015-11-10,21:01～22:00,0.0352,0.0285,0.0321,
小平 (Kodaira),2015-11-10,20:01～21:00,0.0333,0.0296,0.0316,
小平 (Kodaira),2015-11-10,19:01～20:00,0.0352,0.0297,0.0325,
小平 (Kodaira),2015-11-10,18:01～19:00,0.0374,0.0319,0.0348,
小平 (Kodaira),2015-11-10,17:01～18:00,0.0458,0.0356,0.0404,
小平 (Kodaira),2015-11-10,16:01～17:00,0.0524,0.0445,0.0488,
小平 (Kodaira),2015-11-10,15:01～16:00,0.0591,0.0461,0.0538,
小平 (Kodaira),2015-11-10,14:01～15:00,0.0603,0.0336,0.0487,
小平 (Kodaira),2015-11-10,13:01～14:00,0.0440,0.0337,0.0374,
小平 (Kodaira),2015-11-10,12:01～13:00,0.0468,0.0322,0.0410,
小平 (Kodaira),2015-11-10,11:01～12:00,0.0340,0.0294,0.0318,
小平 (Kodaira),2015-11-10,10:01～11:00,0.0356,0.0308,0.0335,
小平 (Kodaira),2015-11-10,09:01～10:00,0.0435,0.0348,0.0379,
小平 (Kodaira),2015-11-10,08:01～09:00,0.0452,0.0306,0.0376,
小平 (Kodaira),2015-11-10,07:01～08:00,0.0357,0.0299,0.0321,
小平 (Kodaira),2015-11-10,06:01～07:00,0.0347,0.0302,0.0322,
小平 (Kodaira),2015-11-10,05:01～06:00,0.0347,0.0307,0.0330,
小平 (Kodaira),2015-11-10,04:01～05:00,0.0357,0.0312,0.0334,
小平 (Kodaira),2015-11-10,03:01～04:00,0.0357,0.0311,0.0332,
小平 (Kodaira),2015-11-10,02:01～03:00,0.0350,0.0308,0.0326,
小平 (Kodaira),2015-11-10,01:01～02:00,0.0362,0.0309,0.0326,
小平 (Kodaira),2015-11-10,00:01～01:00,0.0354,0.0311,0.0332,
小平 (Kodaira),2015-11-09,23:01～24:00,0.0363,0.0316,0.0342,
小平 (Kodaira),2015-11-09,22:01～23:00,0.0371,0.0307,0.0333,
小平 (Kodaira),2015-11-09,21:01～22:00,0.0343,0.0300,0.0322,
小平 (Kodaira),2015-11-09,20:01～21:00,0.0339,0.0303,0.0321,
小平 (Kodaira),2015-11-09,19:01～20:00,0.0350,0.0302,0.0324,
小平 (Kodaira),2015-11-09,18:01～19:00,0.0361,0.0314,0.0338,
小平 (Kodaira),2015-11-09,17:01～18:00,0.0365,0.0313,0.0335,
小平 (Kodaira),2015-11-09,16:01～17:00,0.0346,0.0308,0.0325,
小平 (Kodaira),2015-11-09,15:01～16:00,0.0341,0.0302,0.0321,
小平 (Kodaira),2015-11-09,14:01～15:00,0.0335,0.0304,0.0320,
小平 (Kodaira),2015-11-09,13:01～14:00,0.0346,0.0302,0.0322,
小平 (Kodaira),2015-11-09,12:01～13:00,0.0342,0.0297,0.0320,
小平 (Kodaira),2015-11-09,11:01～12:00,0.0343,0.0302,0.0319,
小平 (Kodaira),2015-11-09,10:01～11:00,0.0348,0.0300,0.0323,
小平 (Kodaira),2015-11-09,09:01～10:00,0.0343,0.0306,0.0319,
小平 (Kodaira),2015-11-09,08:01～09:00,0.0338,0.0306,0.0322,
小平 (Kodaira),2015-11-09,07:01～08:00,0.0339,0.0300,0.0322,
小平 (Kodaira),2015-11-09,06:01～07:00,0.0340,0.0295,0.0318,
小平 (Kodaira),2015-11-09,05:01～06:00,0.0340,0.0294,0.0317,
小平 (Kodaira),2015-11-09,04:01～05:00,0.0334,0.0296,0.0317,
小平 (Kodaira),2015-11-09,03:01～04:00,0.0337,0.0296,0.0319,
小平 (Kodaira),2015-11-09,02:01～03:00,0.0341,0.0297,0.0319,
小平 (Kodaira),2015-11-09,01:01～02:00,0.0347,0.0303,0.0327,
小平 (Kodaira),2015-11-09,00:01～01:00,0.0356,0.0321,0.0336,
